[[{"header":{"parameterUnit":"m.s-1","parameterCategory":1,"la1":30.2991,"la2":30.254,"lo1":-89.0895,"lo2":-89.0444,"dy":0.0017,"dx":0.0017,"nx":28,"ny":28,"refTime":"2025-05-01T03:00:00:Z","depth":0,"parameterNumber":2,"parameterNumberName":"U-component_of_WINDS"},"data":[0,0,0,0,0,0,0,0,0,0,0,0,0,0,0,0,0,0,0,0,0,0,0,0,0,0,0,0,0,0,0,0,0,0,0,0,0,0,0,0,0,0,0,0,0,0,0,0,0,0,0,0,0,0,0,0,0,0,0.0976,0.0978,0,0.1105,0.1107,0.1108,0.1169,0.1169,0.1169,0.1169,0.1299,0.1302,0.1306,0,0,0,0,0,0,0,0,0,0,0,0,0,0.078,0.0783,0.0976,0.0978,0.0979,0.1105,0.1107,0.1109,0.1169,0.1169,0.1169,0.1169,0.1298,0.1302,0.1306,0,0,0,0,0,0,0,0,0,0,0,0,0,0.0883,0.0784,0.0976,0.1025,0.103,0.1105,0.1107,0.1109,0.1169,0.1169,0.1169,0.1169,0.1296,0.1302,0.1307,0.1342,0,0,0.1323,0.1325,0,0,0,0,0,0,0,0,0.0877,0.089,0.1016,0.1022,0.1028,0.1121,0.1086,0.1187,0.1169,0.1116,0.1169,0.1169,0.124,0.125,0.1274,0.1348,0.1354,0.1324,0.1327,0.1329,0.1331,0,0,0,0,0,0,0,0.0869,0.0884,0.1027,0.1018,0.1025,0.104,0.1054,0.1105,0.1177,0.1121,0.1126,0.114,0.1243,0.1269,0.1278,0.1355,0.1323,0.1328,0.1331,0.1333,0.1464,0.1465,0,0,0,0,0,0,0.0855,0.0878,0.1023,0.1031,0.0951,0.1043,0.1059,0.1091,0.1177,0.119,0.114,0.1143,0.126,0.1271,0.1282,0.1329,0.1329,0.1334,0.1337,0.1464,0.1464,0.1465,0,0,0,0,0,0,0.085,0.0867,0.1018,0.0956,0.0976,0.1047,0.1082,0.1094,0.112,0.1191,0.1204,0.1154,0.126,0.1275,0.1327,0.1335,0.1336,0.1341,0.1464,0.1464,0.1465,0.1423,0,0,0,0,0,0,0.0844,0.0865,0.088,0.0956,0.0979,0.1061,0.1083,0.1096,0.1129,0.1133,0.1207,0.1219,0.1261,0.1319,0.1332,0.1342,0.1345,0.1463,0.1464,0.1464,0.1424,0.1422,0.142,0,0,0,0,0,0.0837,0.0862,0.088,0.0897,0.0999,0.1061,0.1074,0.1123,0.1129,0.1144,0.119,0.1217,0.1331,0.1323,0.1339,0.1351,0.1463,0.1464,0.1464,0.1425,0.1422,0.142,0,0,0,0,0,0,0.0785,0.0873,0.0894,0.0945,0.0995,0.1071,0.1092,0.1119,0.1168,0.117,0.1227,0.1243,0.129,0.1325,0.1315,0.1389,0.14,0.1403,0.1364,0.1362,0.1361,0.1351,0.135,0,0,0,0,0,0.0779,0.0822,0.0897,0.0935,0.0959,0.1021,0.1049,0.1082,0.1137,0.1158,0.1208,0.1258,0.1306,0.1336,0.1384,0.1429,0.1446,0.1445,0.1443,0.1441,0.1444,0.147,0.1471,0.1467,0.1467,0.1467,0,0,0.0768,0.0822,0.0845,0.0926,0.0969,0.1012,0.1038,0.1083,0.1115,0.1165,0.1217,0.1255,0.1315,0.1364,0.1388,0.1395,0.1448,0.1442,0.144,0.1444,0.1471,0.1471,0.1472,0.1467,0.1467,0.1467,0,0,0.077,0.0815,0.0851,0.0893,0.0958,0.0999,0.1007,0.108,0.1107,0.1161,0.1198,0.1237,0.1318,0.136,0.1391,0.1408,0.1434,0.1422,0.1412,0.1437,0.1438,0.1438,0.1445,0.1446,0.1424,0.1424,0.1424,0,0.0747,0.0815,0.0866,0.0909,0.0943,0.099,0.1027,0.1065,0.1142,0.1164,0.1171,0.1273,0.1317,0.1376,0.138,0.1404,0.1415,0.1414,0.1434,0.1435,0.1436,0.1443,0.1445,0.1422,0.1422,0.1423,0.1423,0,0.0784,0.083,0.0852,0.0925,0.0962,0.1001,0.1058,0.1088,0.1118,0.1157,0.1211,0.1265,0.1325,0.1341,0.137,0.1404,0.1407,0.1423,0.1435,0.1434,0.1441,0.1444,0.1419,0.142,0.1421,0.1421,0,0,0.0757,0.0859,0.0866,0.09,0.0974,0.1011,0.1052,0.1111,0.1136,0.1186,0.1222,0.1289,0.1305,0.134,0.1374,0.1396,0.1406,0.141,0.1412,0.1408,0.1447,0.1435,0.1437,0.1424,0.1425,0.1425,0.1443,0,0.077,0.0847,0.0894,0.0952,0.0995,0.104,0.1076,0.1125,0.1163,0.1204,0.1246,0.1293,0.1309,0.1331,0.1355,0.14,0.1415,0.1399,0.1458,0.1459,0.1442,0.1441,0.1429,0.1443,0.1446,0.1446,0.1447,0,0.0795,0.0846,0.0908,0.0978,0.0997,0.1029,0.1087,0.1126,0.1182,0.1208,0.1248,0.1282,0.1327,0.1334,0.1396,0.1384,0.1411,0.1436,0.1438,0.1446,0.1453,0.1449,0.1448,0.145,0.1451,0.1451,0.1451,0,0.0769,0.0853,0.0901,0.0929,0.1011,0.1032,0.1068,0.1124,0.1156,0.1206,0.1228,0.1281,0.1311,0.1352,0.1399,0.14,0.1456,0.1468,0.1479,0.1478,0.149,0.1488,0.1493,0.1505,0.1505,0.1505,0.1505,0,0.0779,0.0815,0.0891,0.0921,0.0962,0.1016,0.1056,0.1094,0.1144,0.1181,0.1223,0.1257,0.1317,0.1358,0.1395,0.1441,0.1454,0.1476,0.1486,0.1473,0.147,0.1491,0.1492,0.1506,0.1506,0.1505,0.1505,0,0.0758,0.081,0.0866,0.0939,0.0959,0.0986,0.1049,0.1079,0.1119,0.1166,0.118,0.1242,0.1293,0.1344,0.1412,0.1437,0.1482,0.1495,0.1463,0.1469,0.1477,0.1476,0.1496,0.1502,0.1509,0.1509,0.1509,0,0.0761,0.079,0.0867,0.0895,0.093,0.0975,0.1008,0.1061,0.1094,0.116,0.1182,0.1236,0.1282,0.1361,0.1412,0.1464,0.1479,0.1482,0.1487,0.1473,0.1479,0.1477,0.148,0.148,0.148,0.148,0.148,0,0.076,0.0785,0.0832,0.0888,0.0926,0.0973,0.1021,0.1041,0.1103,0.1138,0.1191,0.1226,0.1296,0.1349,0.1407,0.1443,0.1471,0.1478,0.1483,0.1471,0.1451,0.1462,0.1459,0.1477,0.1477,0.1477,0.1478,0.1478,0.0752,0.078,0.0839,0.0889,0.0931,0.0975,0.1007,0.1051,0.1096,0.1158,0.1186,0.1239,0.1294,0.1375,0.141,0.1451,0.1459,0.1467,0.1469,0.147,0.1467,0.1444,0.1462,0.1462,0.1462,0.1463,0.1463,0,0.0754,0.0794,0.084,0.0906,0.0946,0.097,0.1024,0.1055,0.1102,0.1151,0.1196,0.1256,0.1307,0.1362,0.1417,0.1439,0.1454,0.1452,0.1451,0.1459,0.1457,0.1447,0.1439,0.1439,0.1439,0.1439,0.1439,0.1439,0.076,0.0809,0.084,0.091,0.0949,0.1002,0.1031,0.1071,0.1111,0.1177,0.122,0.1256,0.1307,0.1366,0.1414,0.1428,0.1447,0.1441,0.1459,0.1457,0.1459,0.146,0.1451,0.1444,0.1444,0.1458,0.1458,0.1458]},{"header":{"parameterUnit":"m.s-1","parameterCategory":1,"la1":30.2991,"la2":30.254,"lo1":-89.0895,"lo2":-89.0444,"dy":0.0017,"dx":0.0017,"nx":28,"ny":28,"refTime":"2025-05-01T03:00:00:Z","depth":0,"parameterNumber":3,"parameterNumberName":"V-component_of_WINDS"},"data":[0,0,0,0,0,0,0,0,0,0,0,0,0,0,0,0,0,0,0,0,0,0,0,0,0,0,0,0,0,0,0,0,0,0,0,0,0,0,0,0,0,0,0,0,0,0,0,0,0,0,0,0,0,0,0,0,0,0,6.445,6.4451,0,6.4541,6.4542,6.4543,6.4552,6.4551,6.455,6.4549,6.4635,6.4638,6.4641,0,0,0,0,0,0,0,0,0,0,0,0,0,6.4279,6.4283,6.445,6.4451,6.4452,6.4541,6.4542,6.4543,6.4552,6.4551,6.4549,6.4548,6.4634,6.4638,6.4642,0,0,0,0,0,0,0,0,0,0,0,0,0,6.436,6.4284,6.445,6.4467,6.447,6.454,6.4542,6.4543,6.4552,6.4551,6.4549,6.4548,6.4633,6.4637,6.4642,6.4699,0,0,6.4657,6.4659,0,0,0,0,0,0,0,0,6.4355,6.4366,6.4464,6.4466,6.4469,6.4534,6.4513,6.4595,6.4552,6.4521,6.4549,6.4547,6.4602,6.4609,6.4629,6.4703,6.4707,6.4657,6.466,6.4662,6.4663,0,0,0,0,0,0,0,6.435,6.4362,6.4486,6.4465,6.4468,6.4469,6.4479,6.4529,6.4568,6.4523,6.4524,6.4535,6.4603,6.4624,6.4631,6.4708,6.4657,6.4661,6.4664,6.4666,6.4836,6.4837,0,0,0,0,0,0,6.4342,6.4358,6.4483,6.4488,6.4408,6.4473,6.4485,6.4514,6.4567,6.4574,6.4536,6.4535,6.4617,6.4626,6.4634,6.4706,6.4662,6.4666,6.4669,6.4834,6.4836,6.4838,0,0,0,0,0,0,6.4338,6.4353,6.4479,6.4423,6.444,6.4478,6.4511,6.4517,6.4538,6.4577,6.4584,6.4551,6.4616,6.4627,6.4684,6.4709,6.4668,6.4673,6.4832,6.4835,6.4837,6.4849,0,0,0,0,0,0,6.4333,6.4351,6.4374,6.4424,6.4443,6.4529,6.4513,6.4519,6.4547,6.4547,6.4593,6.4599,6.4616,6.4677,6.4689,6.4715,6.4676,6.483,6.4833,6.4836,6.4846,6.4852,6.4856,0,0,0,0,0,6.4327,6.4372,6.4376,6.4391,6.4472,6.453,6.4541,6.4561,6.4549,6.4572,6.4597,6.4598,6.4705,6.4682,6.4696,6.4724,6.4828,6.4832,6.4836,6.4844,6.4851,6.4856,0,0,0,0,0,0,6.4321,6.4379,6.4383,6.4446,6.4484,6.4532,6.4561,6.4567,6.4606,6.4604,6.4626,6.4636,6.4692,6.4713,6.4688,6.4783,6.4765,6.4772,6.4767,6.4773,6.4778,6.4771,6.468,0,0,0,0,0,6.4328,6.4372,6.4419,6.447,6.4489,6.4522,6.4548,6.4561,6.4599,6.4614,6.4644,6.468,6.4722,6.4748,6.4789,6.485,6.486,6.4876,6.4881,6.4884,6.489,6.4925,6.4933,6.485,6.485,6.485,0,0,6.4341,6.4378,6.4404,6.447,6.45,6.4544,6.4535,6.4581,6.4614,6.462,6.4677,6.47,6.4741,6.4801,6.4828,6.482,6.4915,6.4889,6.4892,6.4895,6.493,6.4937,6.4944,6.4853,6.4852,6.4852,0,0,6.4387,6.442,6.4467,6.4499,6.4546,6.4569,6.458,6.4628,6.4645,6.4702,6.4709,6.4747,6.4818,6.4848,6.4873,6.4934,6.4936,6.4946,6.4971,6.5005,6.5012,6.5017,6.504,6.5048,6.4952,6.4952,6.4952,0,6.4397,6.4465,6.4489,6.4537,6.4566,6.4578,6.4626,6.4654,6.4711,6.4731,6.4722,6.4814,6.4842,6.491,6.4925,6.4944,6.4958,6.4941,6.5009,6.5015,6.5021,6.5043,6.5051,6.4953,6.4953,6.4952,6.4952,0,6.4475,6.4523,6.4555,6.4614,6.4646,6.4693,6.4724,6.4753,6.4764,6.4787,6.4846,6.4881,6.493,6.4947,6.4956,6.5016,6.501,6.5005,6.4987,6.503,6.5051,6.5059,6.4954,6.4954,6.4953,6.4953,0,0,6.4519,6.4593,6.4605,6.4632,6.4687,6.4723,6.4771,6.4822,6.4848,6.4887,6.4927,6.4989,6.4986,6.5014,6.5027,6.5057,6.5105,6.5048,6.5049,6.5058,6.5174,6.5178,6.5188,6.5107,6.5108,6.511,6.5171,0,6.4572,6.466,6.4685,6.4758,6.4803,6.4816,6.4858,6.4895,6.4918,6.4958,6.4983,6.5027,6.5018,6.5036,6.5066,6.5092,6.5128,6.5088,6.5144,6.5146,6.5133,6.5199,6.5203,6.5259,6.5179,6.5181,6.5182,0,6.4646,6.4691,6.477,6.4822,6.4841,6.4878,6.4928,6.4966,6.5009,6.5024,6.5057,6.5068,6.5118,6.5099,6.5167,6.5139,6.5164,6.518,6.5183,6.5189,6.5166,6.5207,6.5277,6.5286,6.5195,6.5194,6.5193,0,6.4671,6.4751,6.4809,6.4832,6.4894,6.492,6.4946,6.4988,6.5018,6.506,6.508,6.5127,6.5152,6.5188,6.5212,6.5195,6.5279,6.5261,6.5292,6.5291,6.5308,6.5307,6.5384,6.5323,6.5323,6.5323,6.5323,0,6.4728,6.4776,6.4822,6.4858,6.4912,6.494,6.4992,6.5019,6.5056,6.5097,6.511,6.5147,6.5176,6.5217,6.5235,6.529,6.5301,6.5314,6.5318,6.5313,6.5312,6.5329,6.5326,6.5325,6.5325,6.5324,6.5324,0,6.4765,6.4798,6.4863,6.4917,6.4931,6.4969,6.5015,6.505,6.5074,6.5126,6.5139,6.5177,6.5226,6.5254,6.5314,6.5327,6.5388,6.539,6.5375,6.5377,6.5407,6.5404,6.5498,6.5512,6.5441,6.5442,6.5443,0,6.4799,6.4838,6.4897,6.4927,6.4954,6.5001,6.5033,6.5061,6.5093,6.5147,6.5175,6.5226,6.5268,6.5346,6.5378,6.5425,6.5429,6.5459,6.5436,6.543,6.543,6.5428,6.5432,6.5462,6.5463,6.5463,6.5464,0,6.4858,6.4873,6.4919,6.4972,6.501,6.5052,6.5093,6.5116,6.5151,6.5187,6.5239,6.5272,6.5337,6.5387,6.5437,6.5462,6.5469,6.5471,6.5481,6.5476,6.5466,6.5473,6.5386,6.5469,6.5468,6.5468,6.5468,6.5467,6.4895,6.493,6.4979,6.503,6.5065,6.5105,6.5141,6.5172,6.5217,6.5273,6.5287,6.5342,6.5385,6.5454,6.5481,6.5524,6.5518,6.5532,6.5536,6.5539,6.5541,6.546,6.5533,6.5533,6.5533,6.5533,6.5533,0,6.4955,6.4987,6.5035,6.5094,6.5135,6.5141,6.5188,6.5221,6.527,6.5311,6.5354,6.5415,6.5464,6.5501,6.5552,6.5579,6.5584,6.5591,6.559,6.5596,6.5542,6.5529,6.5587,6.5587,6.5587,6.5587,6.5587,6.5587,6.4991,6.5051,6.5073,6.5151,6.5182,6.5239,6.5266,6.5302,6.5335,6.5404,6.5446,6.5471,6.551,6.5565,6.561,6.562,6.5638,6.5646,6.5655,6.5605,6.5599,6.5593,6.5581,6.5649,6.5649,6.5705,6.5706,6.5706]}]]